| time (UTC) | temp C | wind direction | speed KPH | gust KPH | rain 1hr cm | rain 24hr cm | rain mn cm | humidity % | barometer mb |
| 20260506151203 | 7 | 274 | 0.0 | 4.8 | 0.15 | 0.84 | 0.38 | 94 | 1009.0 |
| 20260506145702 | 7 | 274 | 0.0 | 6.4 | 0.13 | 0.79 | 0.33 | 94 | 1009.0 |
| 20260506144159 | 7 | 274 | 0.0 | 9.7 | 0.08 | 0.74 | 0.28 | 94 | 1008.8 |
| 20260506142658 | 7 | 271 | 1.6 | 11.3 | 0.08 | 0.71 | 0.25 | 94 | 1008.7 |
| 20260506141158 | 7 | 271 | 1.6 | 9.7 | 0.05 | 0.69 | 0.23 | 94 | 1008.8 |
| 20260506135650 | 7 | 271 | 0.0 | 6.4 | 0.05 | 0.66 | 0.20 | 94 | 1008.7 |
| 20260506134149 | 7 | 271 | 1.6 | 11.3 | 0.05 | 0.66 | 0.20 | 94 | 1008.5 |
| 20260506132651 | 7 | 273 | 1.6 | 11.3 | 0.05 | 0.64 | 0.18 | 94 | 1008.6 |
| 20260506131151 | 7 | 273 | 4.8 | 11.3 | 0.08 | 0.64 | 0.18 | 93 | 1008.7 |
| 20260506125649 | 7 | 272 | 1.6 | 9.7 | 0.08 | 0.61 | 0.15 | 93 | 1008.7 |
| 20260506124150 | 7 | 272 | 1.6 | 9.7 | 0.13 | 0.61 | 0.15 | 93 | 1008.6 |
| 20260506122644 | 7 | 273 | 1.6 | 6.4 | 0.13 | 0.58 | 0.13 | 92 | 1008.7 |
| 20260506121143 | 7 | 273 | 4.8 | 14.5 | 0.10 | 0.56 | 0.10 | 91 | 1008.5 |
| 20260506115643 | 8 | 282 | 6.4 | 20.9 | 0.08 | 0.53 | 0.08 | 91 | 1008.6 |
| 20260506114140 | 9 | 289 | 4.8 | 14.5 | 0.03 | 0.48 | 0.03 | 91 | 1008.6 |
| 20260506112642 | 9 | 255 | 1.6 | 12.9 | 0.00 | 0.46 | 0.00 | 91 | 1008.2 |
| 20260506111139 | 10 | 252 | 1.6 | 11.3 | 0.00 | 0.46 | 0.00 | 90 | 1008.0 |
| 20260506101136 | 10 | 252 | 1.6 | 14.5 | 0.00 | 0.46 | 0.00 | 89 | 1007.1 |
| 20260506095636 | 10 | 255 | 0.0 | 8.0 | 0.00 | 0.46 | 0.00 | 89 | 1006.8 |
| 20260506094134 | 10 | 257 | 1.6 | 4.8 | 0.00 | 0.46 | 0.00 | 88 | 1006.8 |
| 20260506092632 | 10 | 257 | 1.6 | 9.7 | 0.00 | 0.46 | 0.00 | 88 | 1007.0 |
| 20260506091132 | 10 | 256 | 3.2 | 17.7 | 0.00 | 0.46 | 0.00 | 88 | 1007.1 |
| 20260506085631 | 10 | 267 | 1.6 | 12.9 | 0.00 | 0.46 | 0.00 | 88 | 1007.1 |
| 20260506084132 | 10 | 254 | 3.2 | 14.5 | 0.00 | 0.46 | 0.00 | 88 | 1006.8 |
| 20260506082632 | 10 | 227 | 1.6 | 11.3 | 0.00 | 0.46 | 0.00 | 88 | 1006.5 |
| 20260506081133 | 10 | 236 | 1.6 | 8.0 | 0.00 | 0.46 | 0.00 | 88 | 1006.5 |
| 20260506072631 | 11 | 273 | 1.6 | 11.3 | 0.00 | 0.46 | 0.00 | 87 | 1006.1 |
| 20260506071128 | 11 | 200 | 3.2 | 12.9 | 0.00 | 0.46 | 0.00 | 87 | 1005.8 |
| 20260506061125 | 11 | 259 | 4.8 | 17.7 | 0.00 | 0.46 | 0.00 | 81 | 1005.1 |
| 20260506051126 | 11 | 202 | 1.6 | 9.7 | 0.00 | 0.46 | 0.00 | 87 | 1004.7 |
| 20260506042620 | 12 | 286 | 3.2 | 17.7 | 0.00 | 0.46 | 0.00 | 88 | 1004.1 |
| 20260506035616 | 12 | 269 | 1.6 | 14.5 | 0.00 | 0.46 | 0.46 | 90 | 1003.6 |
| 20260506034116 | 12 | 244 | 1.6 | 12.9 | 0.00 | 0.46 | 0.46 | 91 | 1003.9 |
| 20260506032616 | 12 | 262 | 3.2 | 16.1 | 0.00 | 0.46 | 0.46 | 92 | 1003.6 |
| 20260506031118 | 12 | 273 | 6.4 | 17.7 | 0.00 | 0.46 | 0.46 | 93 | 1003.2 |
| 20260506025610 | 12 | 257 | 3.2 | 16.1 | 0.00 | 0.46 | 0.46 | 94 | 1003.0 |
| 20260506024109 | 12 | 253 | 0.0 | 6.4 | 0.00 | 0.46 | 0.46 | 94 | 1002.8 |
| 20260506021105 | 13 | 251 | 1.6 | 11.3 | 0.08 | 0.46 | 0.46 | 95 | 1002.1 |
| 20260506015603 | 13 | 236 | 0.0 | 6.4 | 0.08 | 0.46 | 0.46 | 95 | 1002.2 |
| 20260506012602 | 13 | 235 | 0.0 | 8.0 | 0.15 | 0.43 | 0.43 | 94 | 1002.3 |
| 20260506011102 | 13 | 254 | 0.0 | 6.4 | 0.10 | 0.38 | 0.38 | 94 | 1002.1 |
| 20260506005600 | 13 | 257 | 0.0 | 6.4 | 0.10 | 0.38 | 0.38 | 93 | 1001.6 |
| 20260506004100 | 14 | 257 | 0.0 | 1.6 | 0.08 | 0.33 | 0.33 | 92 | 1001.6 |
| 20260506002553 | 14 | 257 | 0.0 | 3.2 | 0.03 | 0.28 | 0.28 | 92 | 1001.0 |
| 20260506001053 | 14 | 257 | 1.6 | 9.7 | 0.03 | 0.28 | 0.28 | 92 | 1000.7 |
| 20260505235553 | 14 | 258 | 0.0 | 6.4 | 0.03 | 0.28 | 0.28 | 91 | 1000.7 |
| 20260505234051 | 15 | 258 | 1.6 | 11.3 | 0.00 | 0.25 | 0.25 | 90 | 1000.6 |
| 20260505232551 | 15 | 257 | 1.6 | 11.3 | 0.00 | 0.25 | 0.25 | 88 | 1000.4 |
| 20260505231051 | 15 | 247 | 1.6 | 8.0 | 0.00 | 0.25 | 0.25 | 88 | 999.9 |
| 20260505225553 | 15 | 246 | 1.6 | 6.4 | 0.00 | 0.25 | 0.25 | 88 | 999.9 |
| 20260505224051 | 15 | 247 | 1.6 | 12.9 | 0.00 | 0.25 | 0.25 | 88 | 999.4 |
| 20260505222552 | 15 | 255 | 3.2 | 12.9 | 0.00 | 0.25 | 0.25 | 86 | 999.2 |
| 20260505221051 | 15 | 228 | 1.6 | 8.0 | 0.00 | 0.25 | 0.25 | 85 | 998.8 |
| 20260505215552 | 16 | 226 | 1.6 | 14.5 | 0.00 | 0.25 | 0.25 | 82 | 998.7 |
| 20260505214052 | 16 | 266 | 6.4 | 27.4 | 0.00 | 0.25 | 0.25 | 82 | 998.2 |
| 20260505212552 | 17 | 335 | 14.5 | 30.6 | 0.00 | 0.25 | 0.25 | 79 | 997.8 |
| 20260505211051 | 18 | 289 | 12.9 | 30.6 | 0.00 | 0.25 | 0.25 | 74 | 997.7 |
| 20260505205552 | 20 | 193 | 8.0 | 25.7 | 0.00 | 0.25 | 0.25 | 67 | 996.1 |
| 20260505204054 | 20 | 253 | 9.7 | 22.5 | 0.00 | 0.25 | 0.25 | 67 | 995.9 |
| 20260505202551 | 20 | 157 | 8.0 | 25.7 | 0.00 | 0.25 | 0.25 | 68 | 996.1 |
| 20260505201051 | 20 | 184 | 8.0 | 19.3 | 0.00 | 0.25 | 0.25 | 71 | 996.1 |
| 20260505195551 | 19 | 207 | 6.4 | 20.9 | 0.00 | 0.25 | 0.25 | 75 | 996.2 |
| 20260505192552 | 19 | 199 | 3.2 | 11.3 | 0.00 | 0.25 | 0.25 | 83 | 996.9 |
| 20260505191052 | 18 | 221 | 1.6 | 6.4 | 0.00 | 0.25 | 0.25 | 88 | 997.0 |
| 20260505185552 | 17 | 220 | 1.6 | 6.4 | 0.00 | 0.25 | 0.25 | 92 | 997.4 |
| 20260505184049 | 16 | 225 | 0.0 | 3.2 | 0.00 | 0.25 | 0.25 | 95 | 997.5 |
| 20260505182549 | 15 | 225 | 0.0 | 0.0 | 0.05 | 0.25 | 0.25 | 95 | 997.8 |
| 20260505181049 | 15 | 226 | 0.0 | 0.0 | 0.08 | 0.25 | 0.25 | 94 | 998.0 |
| 20260505174051 | 15 | 226 | 0.0 | 4.8 | 0.13 | 0.25 | 0.25 | 93 | 998.1 |
| 20260505171050 | 15 | 225 | 1.6 | 8.0 | 0.18 | 0.18 | 0.18 | 90 | 998.3 |
| 20260505162545 | 16 | 225 | 0.0 | 8.0 | 0.05 | 0.05 | 0.05 | 82 | 998.9 |
| 20260505161046 | 16 | 216 | 0.0 | 9.7 | 0.00 | 0.00 | 0.00 | 76 | 998.8 |
| 20260505152545 | 18 | 214 | 3.2 | 25.7 | 0.00 | 0.00 | 0.00 | 69 | 998.8 |